Main page
METAR-TAF:

METAR-TAF

Airports :

Sialkot, Pakistan

Sialkot International Airport

latitude: 32-32N, longitude: 74-22E, elevation: 255 m

Current weather observation

The report was made 19 minutes ago, at 10:00 UTC
Wind 5 kt from the Southeast
Temperature 35°C
Humidity 53%
Pressure 1002 hPa
Visibility: 5000 m
Scattered clouds at a height of 4000 ft
smoke

METAR: OPST 211000Z 13005KT 5000 FU SCT040 35/24 Q1002 NOSIG RH54

Time: 15:19 (10:19 UTC)


TAF: missing

Weather observations and forecasts of more than 4000 airports (METAR and TAF reports).

The available stations are represented by yellow and red dots on the map.

Hover mouse over dot to see the name of the station.

Then click to see weather observations and forecasts.

To change the map : click on the green buttons with a black cross to zoom in, on the green button with a dash to zoom out, or on the green arrows for adjacent maps.


METAR-TAF: